SCP
0 0 0 0 0 0 0 0 1 0 0 0 0 0 0 0 0 0 0 0 0 0 0 0 0 0 0 0 0 0 0 0
0 0 0 0 1 0 0 1 1 0 0 0 0 0 0 0 0 0 0 0 0 0 0 0 0 0 0 0 0 0 0 0
1 1 0 0 1 1 0 0 1 0 0 0 0 0 0 0 0 0 0 0 0 0 0 0 0 0 0 0 0 0 0 0
1 1 1 1 1 1 1 1 1 0 0 0 0 0 0 0 0 0 0 0 0 0 0 0 0 0 0 0 0 0 0 0
1 1 1 1 1 1 2 1 1 0 1 0 0 0 0 0 0 0 0 0 0 0 0 0 0 0 0 0 0 0 0 0
1 1 1 1 1 1 1 1 0 0 0 0 0 0 0 0 0 0 0 0 0 0 0 0 1 0 0 0 0 0 0 0
1 1 1 1 1 1 1 1 1 0 0 0 0 0 0 0 0 0 0 0 0 0 0 0 0 0 0 0 0 0 0 0
1 1 1 1 1 1 1 1 1 1 0 0 0 1 0 1 0 0 0 0 0 0 0 0 0 0 0 0 0 0 0 0
1 1 1 1 1 1 1 1 1 1 0 0 0 1 0 0 0 0 0 0 0 0 0 0 0 0 0 0 0 0 0 0
1 1 1 1 1 1 1 1 1 1 0 1 0 0 0 0 0 0 0 0 0 0 0 0 0 0 0 0 0 0 0 0
1 1 1 1 1 1 1 1 1 1 1 0 1 1 0 0 0 0 0 0 0 0 0 0 0 0 0 0 0 0 0 0
1 1 1 1 0 0 0 1 1 0 0 0 1 0 0 0 0 0 0 0 0 0 0 0 0 0 0 0 0 0 0 0
1 1 1 0 0 0 0 0 0 0 0 0 0 0 0 0 0 0 0 0 0 0 0 0 0 0 0 0 0 0 0 0
1 1 1 1 0 0 1 0 0 0 0 0 0 0 0 0 0 0 0 0 0 0 0 0 0 0 0 0 0 0 0 0
1 1 0 0 0 0 0 0 0 0 0 0 0 0 0 0 0 0 0 0 0 0 0 0 0 0 0 0 0 0 0 0
0 1 0 0 0 0 0 0 0 0 0 0 0 0 0 0 0 0 0 0 0 0 0 0 0 0 0 0 0 0 0 0
0 0 0 0 0 0 0 0 0 0 0 0 0 0 0 0 0 0 0 0 0 0 0 0 0 0 0 0 0 0 0 0
0 0 0 0 0 0 0 0 0 0 0 0 0 0 0 0 0 0 0 0 0 0 0 0 0 0 0 0 0 0 0 0
0 0 0 0 0 0 0 0 0 0 0 0 0 0 0 0 0 0 0 0 0 0 0 0 0 0 0 0 0 0 0 0
0 0 0 0 0 0 0 0 0 0 0 0 0 0 0 0 0 0 0 0 0 0 0 0 0 0 0 0 0 0 0 0
Wind_Speed_500mb
23 22 22 24 25 25 23 26 27 24 22 16 15 16 17 13 14 10 7 6 7 10 12 19 19 23 23 27 32 29 28 27
21 21 20 23 25 25 22 24 23 30 25 20 19 19 17 14 9 11 9 5 12 10 13 15 19 19 25 26 24 30 31 35
18 19 21 22 24 22 20 17 22 25 30 20 22 20 19 21 14 20 20 17 14 17 20 20 26 28 34 30 34 43 39 39
17 19 20 22 20 21 19 18 26 23 26 33 39 35 31 35 35 31 24 20 22 21 25 34 31 36 45 30 44 49 52 51
16 16 19 18 17 18 24 29 28 32 39 35 32 35 37 38 34 38 32 28 28 35 38 42 44 38 39 42 43 41 43 50
15 15 17 16 13 13 17 21 26 32 32 34 35 28 35 35 34 25 29 33 37 38 37 35 26 29 34 40 44 41 54 46
17 16 15 13 11 15 17 17 25 22 20 19 22 23 20 27 14 23 18 21 25 28 24 19 25 29 33 37 38 42 46 50
17 16 13 11 9 9 14 17 19 21 13 11 11 12 15 15 17 13 11 10 19 20 12 17 22 24 30 34 42 38 46 51
19 16 16 15 12 16 19 19 22 17 9 11 7 12 9 11 9 12 11 4 6 10 9 15 19 26 31 30 31 43 44 46
19 21 20 16 18 21 26 24 22 16 10 5 6 8 9 11 9 5 4 1 4 5 11 17 29 24 27 29 37 38 41 42
22 25 24 23 20 27 28 23 18 15 10 9 11 9 12 7 5 5 2 2 2 7 19 20 23 21 24 31 30 33 42 43
26 27 27 23 23 24 28 23 13 9 11 6 6 4 3 11 2 12 9 6 7 8 12 16 20 22 22 24 29 32 37 41
28 26 25 24 23 23 23 17 13 8 6 5 5 3 3 3 5 15 11 20 9 9 15 18 18 16 21 25 28 31 32 36
26 26 26 24 16 17 15 14 11 9 6 11 10 11 4 2 6 7 9 12 13 13 17 19 18 19 21 23 27 26 31 33
31 27 23 20 17 16 11 12 9 11 14 9 7 4 2 1 3 8 11 9 11 20 22 22 18 22 21 24 27 24 29 32
31 24 20 17 16 15 13 11 13 13 12 9 5 3 2 5 9 13 7 8 12 22 18 20 20 23 23 23 21 26 23 29
27 20 14 16 16 16 14 14 14 12 9 6 3 3 5 9 11 5 8 10 15 18 19 19 19 22 24 26 24 30 25 27
26 23 24 18 19 18 15 13 11 9 7 4 4 7 8 15 11 11 12 15 16 18 21 21 20 22 24 27 26 26 32 28
28 25 24 23 21 16 15 12 8 5 5 7 9 9 13 16 14 15 17 20 20 20 21 22 23 23 24 28 33 31 29 36
32 27 27 23 18 15 13 7 5 8 10 10 13 15 16 17 16 17 19 21 22 23 25 24 25 26 26 28 31 31 32 36
Wind_Direction_500mb
189 192 189 187 188 185 188 188 211 192 195 201 185 198 185 191 193 191 232 228 272 302 305 308 343 320 325 326 321 315 309 298
197 197 196 187 194 191 193 208 202 203 182 203 200 200 191 178 209 221 228 276 279 287 295 305 303 302 302 299 291 292 294 295
194 194 196 196 194 197 196 205 187 201 177 199 200 203 191 198 192 220 232 245 272 280 274 282 288 291 297 295 292 296 295 295
183 187 190 192 197 205 206 213 221 200 204 206 205 208 234 245 233 239 245 252 247 263 280 287 287 298 288 303 297 292 286 287
171 182 184 191 203 216 215 213 228 215 216 217 236 237 250 251 244 272 247 258 272 281 288 293 285 295 300 304 302 291 290 286
164 165 173 188 208 230 245 247 245 229 228 229 242 240 252 249 268 254 250 263 275 286 291 301 294 291 301 306 306 305 304 303
159 163 168 186 218 242 242 220 222 238 220 232 220 248 257 253 219 233 245 267 287 295 308 312 313 314 311 311 310 312 311 307
167 164 177 185 184 174 181 169 176 167 205 192 200 222 195 200 222 219 260 278 292 307 335 298 319 317 314 311 314 311 308 307
157 147 142 142 150 156 149 152 145 136 159 171 200 187 205 201 189 259 279 351 339 312 315 323 318 323 319 313 307 317 314 316
149 138 138 150 149 155 142 144 140 135 145 147 153 194 179 196 232 146 160 136 300 324 329 338 303 321 322 308 317 320 318 320
154 144 142 136 146 150 149 155 147 155 146 171 164 181 197 218 128 97 264 307 307 324 321 325 324 338 324 318 322 321 322 326
161 152 147 144 141 152 160 167 156 158 132 194 217 195 219 129 156 236 291 287 315 330 336 334 331 337 320 329 323 328 327 328
165 155 148 141 146 161 164 165 166 148 132 141 92 155 291 212 250 292 277 287 326 315 342 333 327 340 330 329 329 329 333 323
162 156 146 142 137 156 157 142 141 133 119 115 132 173 177 209 212 288 287 296 307 298 325 326 329 329 327 338 334 334 332 324
167 159 148 147 151 164 151 152 132 131 126 125 112 104 126 59 356 303 312 297 298 293 319 323 326 319 329 331 335 337 327 324
176 155 153 155 160 168 172 165 149 145 146 150 138 94 276 338 317 295 285 302 314 313 314 322 320 320 321 323 344 327 323 319
145 156 147 147 156 158 157 155 155 153 162 170 208 274 328 305 308 318 288 315 317 301 315 317 318 316 314 315 322 325 322 322
155 148 140 157 157 151 154 158 166 176 192 217 256 294 317 320 300 290 304 312 318 322 318 314 314 315 314 308 311 311 307 318
161 151 149 156 154 150 154 157 170 208 253 268 287 295 303 314 291 288 302 310 315 318 315 310 311 311 309 308 310 314 304 305
162 152 155 159 160 164 170 188 244 277 278 278 288 288 299 311 297 291 299 306 308 312 315 306 303 306 305 307 307 306 306 304
Wind_Speed_850mb
23 22 22 24 25 25 23 26 27 24 22 16 15 16 17 13 14 10 7 6 7 10 12 19 19 23 23 27 32 29 28 27
21 21 20 23 25 25 22 24 23 30 25 20 19 19 17 14 9 11 9 5 12 10 13 15 19 19 25 26 24 30 31 35
18 19 21 22 24 22 20 17 22 25 30 20 22 20 19 21 14 20 20 17 14 17 20 20 26 28 34 30 34 43 39 39
17 19 20 22 20 21 19 18 26 23 26 33 39 35 31 35 35 31 24 20 22 21 25 34 31 36 45 30 44 49 52 51
16 16 19 18 17 18 24 29 28 32 39 35 32 35 37 38 34 38 32 28 28 35 38 42 44 38 39 42 43 41 43 50
15 15 17 16 13 13 17 21 26 32 32 34 35 28 35 35 34 25 29 33 37 38 37 35 26 29 34 40 44 41 54 46
17 16 15 13 11 15 17 17 25 22 20 19 22 23 20 27 14 23 18 21 25 28 24 19 25 29 33 37 38 42 46 50
17 16 13 11 9 9 14 17 19 21 13 11 11 12 15 15 17 13 11 10 19 20 12 17 22 24 30 34 42 38 46 51
19 16 16 15 12 16 19 19 22 17 9 11 7 12 9 11 9 12 11 4 6 10 9 15 19 26 31 30 31 43 44 46
19 21 20 16 18 21 26 24 22 16 10 5 6 8 9 11 9 5 4 1 4 5 11 17 29 24 27 29 37 38 41 42
22 25 24 23 20 27 28 23 18 15 10 9 11 9 12 7 5 5 2 2 2 7 19 20 23 21 24 31 30 33 42 43
26 27 27 23 23 24 28 23 13 9 11 6 6 4 3 11 2 12 9 6 7 8 12 16 20 22 22 24 29 32 37 41
28 26 25 24 23 23 23 17 13 8 6 5 5 3 3 3 5 15 11 20 9 9 15 18 18 16 21 25 28 31 32 36
26 26 26 24 16 17 15 14 11 9 6 11 10 11 4 2 6 7 9 12 13 13 17 19 18 19 21 23 27 26 31 33
31 27 23 20 17 16 11 12 9 11 14 9 7 4 2 1 3 8 11 9 11 20 22 22 18 22 21 24 27 24 29 32
31 24 20 17 16 15 13 11 13 13 12 9 5 3 2 5 9 13 7 8 12 22 18 20 20 23 23 23 21 26 23 29
27 20 14 16 16 16 14 14 14 12 9 6 3 3 5 9 11 5 8 10 15 18 19 19 19 22 24 26 24 30 25 27
26 23 24 18 19 18 15 13 11 9 7 4 4 7 8 15 11 11 12 15 16 18 21 21 20 22 24 27 26 26 32 28
28 25 24 23 21 16 15 12 8 5 5 7 9 9 13 16 14 15 17 20 20 20 21 22 23 23 24 28 33 31 29 36
32 27 27 23 18 15 13 7 5 8 10 10 13 15 16 17 16 17 19 21 22 23 25 24 25 26 26 28 31 31 32 36
Wind_Direction_850mb
189 192 189 187 188 185 188 188 211 192 195 201 185 198 185 191 193 191 232 228 272 302 305 308 343 320 325 326 321 315 309 298
197 197 196 187 194 191 193 208 202 203 182 203 200 200 191 178 209 221 228 276 279 287 295 305 303 302 302 299 291 292 294 295
194 194 196 196 194 197 196 205 187 201 177 199 200 203 191 198 192 220 232 245 272 280 274 282 288 291 297 295 292 296 295 295
183 187 190 192 197 205 206 213 221 200 204 206 205 208 234 245 233 239 245 252 247 263 280 287 287 298 288 303 297 292 286 287
171 182 184 191 203 216 215 213 228 215 216 217 236 237 250 251 244 272 247 258 272 281 288 293 285 295 300 304 302 291 290 286
164 165 173 188 208 230 245 247 245 229 228 229 242 240 252 249 268 254 250 263 275 286 291 301 294 291 301 306 306 305 304 303
159 163 168 186 218 242 242 220 222 238 220 232 220 248 257 253 219 233 245 267 287 295 308 312 313 314 311 311 310 312 311 307
167 164 177 185 184 174 181 169 176 167 205 192 200 222 195 200 222 219 260 278 292 307 335 298 319 317 314 311 314 311 308 307
157 147 142 142 150 156 149 152 145 136 159 171 200 187 205 201 189 259 279 351 339 312 315 323 318 323 319 313 307 317 314 316
149 138 138 150 149 155 142 144 140 135 145 147 153 194 179 196 232 146 160 136 300 324 329 338 303 321 322 308 317 320 318 320
154 144 142 136 146 150 149 155 147 155 146 171 164 181 197 218 128 97 264 307 307 324 321 325 324 338 324 318 322 321 322 326
161 152 147 144 141 152 160 167 156 158 132 194 217 195 219 129 156 236 291 287 315 330 336 334 331 337 320 329 323 328 327 328
165 155 148 141 146 161 164 165 166 148 132 141 92 155 291 212 250 292 277 287 326 315 342 333 327 340 330 329 329 329 333 323
162 156 146 142 137 156 157 142 141 133 119 115 132 173 177 209 212 288 287 296 307 298 325 326 329 329 327 338 334 334 332 324
167 159 148 147 151 164 151 152 132 131 126 125 112 104 126 59 356 303 312 297 298 293 319 323 326 319 329 331 335 337 327 324
176 155 153 155 160 168 172 165 149 145 146 150 138 94 276 338 317 295 285 302 314 313 314 322 320 320 321 323 344 327 323 319
145 156 147 147 156 158 157 155 155 153 162 170 208 274 328 305 308 318 288 315 317 301 315 317 318 316 314 315 322 325 322 322
155 148 140 157 157 151 154 158 166 176 192 217 256 294 317 320 300 290 304 312 318 322 318 314 314 315 314 308 311 311 307 318
161 151 149 156 154 150 154 157 170 208 253 268 287 295 303 314 291 288 302 310 315 318 315 310 311 311 309 308 310 314 304 305
162 152 155 159 160 164 170 188 244 277 278 278 288 288 299 311 297 291 299 306 308 312 315 306 303 306 305 307 307 306 306 304